Regional Weather Roundup
Issued by NWS

Home | Current Version | Previous Version | Text Only | Print | Product List | Glossary Off
Versions: 1 2 3 4 5 6 7 8 9 10 11 12 13 14 15 16 17 18 19 20 21 22 23 24 25 26 27 28 29 30 31 32 33 34 35 36 37 38 39 40 41 42 43 44 45 46 47 48 49 50

000
ASUS45 KABQ 210210
RWRNM
NEW MEXICO REGIONAL WEATHER ROUNDUP
NATIONAL WEATHER SERVICE ALBUQUERQUE NM
700 PM MST SAT JAN 20 2018

NOTE: "FAIR" MEANS FEW OR NO CLOUDS BELOW 12,000 FEET AGL WITH NO
       SIGNIFICANT WEATHER OR OBSTRUCTIONS TO VISION.

      THIS PRODUCT IS RELEASED AS TWO VERSIONS.  ONE VERSION NEAR
      THE TOP OF THE HOUR CONTAINING PRELIMINARY DATA FROM ALBUQUERQUE
      AND OTHER STATIONS.  A FINAL VERSION WITH ADDITIONAL DATA IS
      ISSUED ABOUT 10 MINUTES AFTER THE HOUR.

NMZ501-503-504-510>518-210300-
NORTHWEST PLATEAU/NORTHCENTRAL MOUNTAINS

CITY           SKY/WX    TMP DP  RH WIND       PRES   REMARKS
FARMINGTON     RAIN      36  34  92 NW17G31   29.79R WCI  26
LOS ALAMOS     CLOUDY    46  11  24 S6        29.82F
SANTA FE       MOCLDY    42  13  30 E6        29.79F
TAOS           FAIR      39  12  33 SE8       29.83F WCI  33
ANGEL FIRE     CLOUDY    40  13  32 S7G18     29.85F

$$
NMZ402-403-502-505>509-210300-
WESTCENTRAL MOUNTAINS/SOUTHWEST MOUNTAINS

CITY           SKY/WX    TMP DP  RH WIND       PRES   REMARKS
GALLUP         LGT SNOW  31  30  96 W10       29.85R VSB 1   WCI  22
GRANTS         FAIR      46  21  38 S8G17     29.80S
SILVER CITY    CLOUDY    53  24  33 SW16      29.87S

$$
NMZ407-409-411-412-210300-
SOUTHERN DESERTS

CITY           SKY/WX    TMP DP  RH WIND       PRES   REMARKS
DEMING         CLOUDY    60  25  26 SW12      29.85F
LAS CRUCES     FAIR      57  21  24 SW12      29.87F
HOLLOMAN AFB   FAIR      55  20  25 SE12      29.86F
ALAMOGORDO     FAIR      57  19  23 SE16G22   29.86F
T OR C         FAIR      58  22  24 S20G29    29.81F

$$
NMZ519>523-210300-
CENTRAL VALLEYS/CENTRAL HIGHLANDS

CITY           SKY/WX    TMP DP  RH WIND       PRES   REMARKS
ALBUQUERQUE    MOCLDY    53  17  24 S10       29.79S
DOUBLE EAGLE   CLOUDY    54  21  28 S14G22    29.79F
MORIARTY ARPT  FAIR      42  16  34 S10       29.84F
CLINES CORNERS FAIR      40  14  34 SW15      29.86S WCI  32
BELEN          FAIR      52  19  26 S10       29.79F
SOCORRO        FAIR      51  19  28 S9        29.79F

$$
NMZ524>526-539-540-210300-
SOUTHCENTRAL MOUNTAINS

CITY           SKY/WX    TMP DP  RH WIND       PRES   REMARKS
RUIDOSO        NOT AVBL

$$
NMZ527>531-210300-
NORTHEAST HIGHLANDS/NORTHEAST PLAINS

CITY           SKY/WX    TMP DP  RH WIND       PRES   REMARKS
LAS VEGAS      FAIR      41  14  33 SW13      29.83F
RATON          FAIR      48  13  24 SW14G21   29.75S
CLAYTON        FAIR      50  13  22 S16       29.72S

$$
NMZ532>537-210300-
EASTCENTRAL PLAINS

CITY           SKY/WX    TMP DP  RH WIND       PRES   REMARKS
TUCUMCARI      FAIR      53  13  20 CALM      29.74R
CANNON AFB     FAIR      57  11  16 S12       29.81S
CLOVIS AIRPORT FAIR      46  12  25 S8        29.81S

$$
NMZ028-029-538-210300-
SOUTHEAST PLAINS

CITY           SKY/WX    TMP DP  RH WIND       PRES   REMARKS
ROSWELL        FAIR      60  19  20 SW18      29.79S
ARTESIA        FAIR      59  18  20 SW13      29.84R
CARLSBAD       FAIR      48  15  26 VRB6      29.84R
HOBBS          FAIR      50  12  22 SW12      29.86R


$$




USA.gov is the U.S. government's official web portal to all federal, state and local government web resources and services.